SCP
0 0 0 0 0 1 1 2 2 0 0 0 0 0 0 0 2 2 1 4 4 3 3 3 3 3 3 3 2 2 2 1 0 0 0 0 0 0 0 0 0 1 0
0 0 0 0 0 0 0 1 0 0 0 0 0 0 0 0 0 1 0 1 2 3 2 2 2 3 2 2 2 1 1 1 1 0 0 0 0 0 0 0 0 1 0
0 0 0 0 0 0 1 1 0 0 0 0 0 0 0 -0 -1 -0 -0 0 1 3 3 2 1 1 2 1 1 1 1 1 1 1 0 0 0 1 1 1 0 0 1
0 0 0 0 0 0 0 0 0 0 0 0 0 0 0 0 0 0 1 2 2 2 2 2 2 1 1 1 1 1 1 1 0 0 0 0 0 0 1 1 0 0 0
0 0 0 0 0 0 0 0 0 0 0 0 -0 0 1 0 1 1 2 3 3 3 2 1 1 0 0 0 0 0 0 0 0 0 0 0 0 0 0 0 0 0 0
0 0 0 0 0 0 0 0 0 0 2 1 0 1 1 1 1 1 3 3 3 2 2 0 0 0 0 0 0 0 0 0 0 0 0 0 -0 -0 0 0 0 0 0
0 0 0 0 0 0 0 0 0 0 0 1 1 2 2 2 1 1 2 3 2 2 1 1 0 0 0 0 0 0 0 0 0 0 0 0 0 0 0 -0 0 0 0
0 0 0 0 0 0 0 0 0 0 0 0 1 3 4 3 0 0 1 3 2 1 1 1 0 0 0 0 0 0 0 0 0 0 0 0 0 0 0 0 0 0 0
0 0 0 0 0 0 -0 0 0 0 0 1 0 1 2 0 0 0 1 2 2 1 1 0 0 0 0 0 0 0 0 0 0 0 -0 0 0 0 0 0 0 0 0
0 0 0 0 0 0 0 0 0 0 0 1 2 1 1 1 0 0 1 1 1 1 1 0 0 0 0 0 0 0 -0 0 0 0 -0 -0 -0 -0 0 0 0 0 0
0 0 0 0 0 -0 0 0 0 0 0 0 0 1 1 2 0 0 0 0 1 0 0 0 0 0 0 0 0 0 0 0 0 -0 -0 -0 -0 0 0 0 0 0 0
0 0 0 0 0 0 -0 -0 0 0 0 0 0 0 0 1 0 0 0 0 0 0 0 0 0 0 0 0 0 -0 0 0 0 -0 -0 -0 -0 0 0 -0 0 0 0
0 0 0 0 0 0 0 0 0 0 0 0 0 0 0 0 0 0 0 0 0 0 0 0 0 0 0 0 -0 0 0 -0 -0 -0 0 -0 0 0 0 0 0 0 0
0 0 0 0 0 0 0 0 -0 -0 0 0 0 0 0 0 1 0 0 0 0 0 0 0 0 0 0 0 -0 -0 -0 -0 -0 -0 0 0 0 0 0 0 0 0 0
0 0 0 0 0 0 0 0 -0 -0 -0 0 0 0 0 0 0 1 0 0 0 0 0 0 0 0 0 0 -0 -0 -0 -0 -0 0 0 0 0 0 0 0 0 -0 0
0 0 0 0 0 0 0 0 0 0 -0 0 0 0 0 0 0 0 0 0 0 0 0 0 0 0 0 0 -0 -0 -0 -0 -0 0 0 0 0 0 0 0 -0 -0 -0
0 0 0 0 0 0 0 0 0 0 -0 0 0 0 0 0 0 0 0 0 0 0 0 0 0 0 0 0 0 -0 -0 -0 0 0 0 0 0 0 0 -0 -0 -0 -0
0 0 0 0 0 0 0 -0 0 0 -0 0 0 0 0 0 0 0 0 0 0 0 0 0 0 0 0 0 0 0 -0 0 0 0 0 0 0 0 0 -0 -0 -0 0
0 0 0 0 0 0 0 -0 -0 0 0 0 0 0 0 0 0 0 0 0 0 0 0 0 0 0 0 0 0 0 -0 0 0 0 0 0 -0 0 -0 0 -0 0 0
0 0 0 0 0 0 -0 0 0 0 0 0 0 0 0 0 0 0 0 0 0 0 0 0 0 0 0 0 0 0 -0 0 0 0 0 0 0 0 0 -0 0 0 0
0 0 0 0 0 0 0 0 -0 0 0 0 0 0 0 0 0 0 0 0 0 0 0 0 0 0 0 0 0 -0 0 0 0 0 0 -0 0 0 -0 0 0 0 0
0 0 0 0 0 0 0 0 0 -0 0 0 0 0 0 0 0 0 0 0 0 0 0 0 0 0 0 -0 -0 -0 0 0 0 0 0 -0 0 -0 -0 0 0 0 0
-0 -0 0 0 0 0 0 0 0 0 -0 -0 0 0 0 0 0 0 0 0 0 0 0 0 0 0 0 0 0 0 1 0 0 0 0 -0 0 0 0 0 0 0 0
0 -0 -0 -0 0 0 0 0 0 0 0 0 -0 -0 -0 -0 0 0 0 0 0 0 0 0 0 0 0 0 0 0 0 0 0 0 0 0 0 0 0 0 -0 0 0
0 0 0 0 0 0 0 0 0 0 0 0 0 -0 0 0 0 0 0 0 0 0 0 0 0 0 0 0 0 0 0 -0 0 0 0 0 0 0 0 0 0 0 0
0 0 0 0 0 0 0 0 0 0 0 0 0 0 0 0 0 -0 -0 0 0 0 0 0 0 0 0 0 0 0 0 0 0 0 0 0 0 0 0 0 0 0 0
Wind_Speed_500mb
53 58 61 63 64 59 53 66 71 78 76 39 42 32 87 46 59 63 59 56 51 51 54 52 51 50 49 45 51 47 46 46 54 53 43 42 41 45 51 43 39 42 48
53 58 59 59 63 64 67 52 60 71 83 57 44 38 35 60 42 39 55 49 51 55 50 52 54 51 48 45 49 47 40 36 31 38 46 53 55 53 54 45 31 38 37
56 60 63 58 63 58 50 53 49 52 57 60 46 24 11 70 79 71 67 61 53 54 51 51 47 43 41 31 32 27 25 22 25 34 47 47 42 45 48 47 41 45 48
54 53 61 63 59 63 57 53 46 38 33 38 41 49 93 93 73 69 59 50 41 38 39 44 33 31 20 17 23 29 32 36 40 44 47 44 45 50 53 51 52 47 48
68 68 58 54 62 65 59 57 61 45 54 42 46 58 57 58 63 57 52 44 43 40 34 35 38 33 26 27 29 31 31 33 36 33 36 42 44 36 36 43 46 50 38
103 93 79 75 64 59 67 62 53 54 41 46 63 61 63 65 61 61 50 48 49 51 47 39 21 14 15 19 25 34 43 51 50 44 46 60 60 60 47 42 46 48 45
104 112 104 99 93 91 64 68 61 57 57 49 61 63 62 60 58 58 59 56 54 42 34 30 24 9 5 7 13 15 21 22 23 26 36 39 43 45 49 55 57 47 44
87 86 88 91 84 92 87 58 74 64 59 51 38 60 58 63 56 64 68 65 55 43 39 34 21 17 14 8 11 21 21 22 25 29 36 39 41 45 48 49 47 41 42
82 83 83 74 92 98 95 73 63 81 60 40 69 32 55 48 51 69 69 66 58 49 38 24 21 19 15 14 19 21 27 35 31 35 34 41 35 43 52 54 46 40 32
79 73 73 80 82 90 83 73 70 63 76 51 49 58 24 45 59 65 74 66 55 48 35 29 29 27 16 13 16 20 23 26 35 40 42 48 48 53 49 45 36 33 26
72 70 76 69 77 75 94 79 54 63 59 60 69 51 60 41 68 72 67 63 61 49 39 34 30 19 18 17 23 29 29 30 38 46 50 49 42 44 27 20 26 25 21
62 69 65 66 81 55 67 97 69 64 49 71 64 77 74 61 56 76 72 66 57 47 41 35 31 32 25 24 28 34 38 38 42 46 47 48 42 27 18 21 19 23 28
64 66 66 57 58 68 81 58 80 68 61 51 79 68 87 70 44 66 69 61 61 48 44 40 32 32 38 35 37 43 45 44 40 41 37 42 33 22 21 24 22 26 29
65 66 60 56 59 53 61 65 65 82 68 50 65 77 85 78 58 67 53 60 60 67 58 41 44 46 45 45 49 52 51 48 35 32 37 35 28 24 29 26 22 27 21
66 64 62 61 48 53 48 62 60 72 76 60 58 71 85 89 81 72 57 61 66 63 70 67 62 55 55 54 51 42 37 33 23 34 42 29 27 25 26 26 26 16 20
52 54 50 39 38 41 37 45 52 59 87 66 38 43 65 85 88 79 76 64 75 72 72 73 67 58 56 46 35 36 37 41 30 39 44 28 29 32 28 26 26 19 21
39 51 37 16 10 22 26 34 37 60 85 77 34 30 40 59 72 93 74 74 64 63 68 72 66 57 42 40 39 38 38 38 38 42 39 31 37 31 26 31 30 25 23
33 40 38 14 1 7 16 26 27 32 67 104 58 35 32 39 57 79 86 79 76 66 58 53 48 49 43 41 40 40 36 42 43 50 41 37 37 28 34 32 31 22 28
33 37 25 20 9 4 11 19 25 27 36 86 46 37 44 33 46 52 66 82 81 70 60 54 49 49 49 45 45 41 37 42 34 50 40 37 40 30 33 29 17 21 30
35 34 27 14 11 7 12 8 22 28 36 61 54 39 36 27 40 54 47 66 73 73 70 64 61 61 62 55 46 39 41 50 35 52 43 39 32 31 31 24 21 29 31
31 33 29 17 7 5 11 3 13 25 25 55 60 50 35 31 36 39 57 58 55 56 55 50 44 42 39 43 50 44 45 44 45 44 44 43 30 34 32 25 28 31 34
29 24 26 24 15 5 4 10 12 20 28 38 54 62 69 60 43 36 47 51 57 47 46 45 44 46 46 45 39 45 47 42 53 45 42 43 35 36 35 33 35 43 41
21 30 19 20 22 17 9 6 13 18 31 31 40 59 62 79 70 56 51 57 54 46 54 58 50 47 49 47 45 51 52 51 49 43 44 40 40 32 40 43 45 45 40
18 22 26 30 19 22 22 18 8 14 20 31 48 52 42 63 73 68 62 58 59 56 59 67 65 65 58 55 42 41 44 53 47 45 45 37 43 38 43 46 52 45 39
25 20 22 29 27 32 16 7 25 20 26 30 48 56 54 50 55 61 53 70 72 63 59 63 66 63 55 55 53 49 56 56 47 40 36 35 39 43 48 46 50 47 40
44 38 33 32 27 24 20 13 9 19 32 33 37 37 44 44 49 57 52 56 56 64 62 56 57 60 54 51 54 58 48 44 41 38 35 41 40 61 53 55 52 45 45
Wind_Direction_500mb
303 304 304 309 300 296 294 271 270 254 251 260 257 220 214 238 224 216 209 204 211 219 225 235 240 242 244 239 239 250 244 246 261 276 282 285 292 285 288 296 295 297 301
299 297 307 299 308 300 291 291 280 266 257 263 264 247 196 220 232 213 229 217 215 222 220 226 228 232 240 235 234 246 252 261 261 279 288 291 289 286 289 296 294 310 312
290 295 300 301 298 304 300 289 282 285 270 250 258 266 261 208 217 215 219 213 215 217 222 230 234 234 234 231 240 243 247 264 269 275 281 283 290 292 286 293 280 301 303
310 292 289 299 300 299 302 280 290 267 221 211 202 190 218 208 203 209 207 206 213 220 231 225 220 210 190 185 227 244 246 251 262 271 276 287 291 292 274 289 287 289 287
301 301 288 296 298 297 290 303 268 266 205 202 204 204 200 196 202 198 195 195 196 198 184 181 179 186 193 210 232 242 248 255 255 254 261 272 276 303 291 288 292 300 305
293 287 286 287 278 285 289 279 294 256 235 214 212 209 201 195 191 188 185 174 165 173 180 187 180 203 241 249 247 252 255 253 258 263 271 280 276 278 289 295 295 295 299
285 281 281 279 282 273 280 273 268 272 257 222 216 204 203 193 193 184 177 178 180 173 172 184 167 161 190 267 286 287 285 286 281 280 284 284 286 287 291 291 293 292 299
285 280 271 275 267 265 259 278 253 254 264 245 227 211 203 196 195 186 183 182 182 192 195 187 181 197 230 273 255 249 272 275 276 281 281 284 286 289 288 289 293 294 298
284 280 280 262 256 257 265 270 262 250 244 234 256 173 206 199 201 191 186 180 184 193 198 193 212 236 255 288 289 290 267 258 264 266 273 280 277 281 283 280 278 285 284
286 283 271 270 266 262 259 263 259 252 244 231 224 217 209 195 202 196 195 187 189 191 203 214 228 236 250 250 286 301 291 268 267 266 265 274 280 291 284 267 260 247 265
296 287 277 275 262 265 251 249 269 256 247 236 232 229 214 204 204 204 200 195 191 195 208 222 232 223 221 260 290 295 298 296 285 280 284 295 296 301 284 227 219 225 250
304 298 285 269 254 250 258 248 248 244 244 229 224 229 219 219 209 196 205 200 192 205 203 213 223 221 227 252 281 297 299 297 292 286 290 296 304 281 239 214 222 265 267
306 301 293 285 259 249 241 246 238 243 241 239 226 224 226 235 219 200 203 206 200 187 198 210 210 227 243 269 289 293 295 298 301 287 283 295 296 255 238 230 241 256 265
305 301 296 282 274 257 241 236 239 237 237 253 223 221 227 233 227 215 208 209 213 215 220 215 226 235 256 275 287 289 292 297 286 281 278 297 281 249 248 247 250 265 250
320 302 302 286 265 259 242 231 235 234 225 243 231 221 218 222 219 211 210 210 223 220 221 225 234 244 261 272 281 290 298 308 271 276 279 274 259 255 250 261 270 254 234
333 330 325 300 254 244 237 228 230 235 220 228 218 203 215 219 213 214 220 225 225 228 220 225 234 246 260 271 272 277 278 280 257 263 272 261 249 248 260 268 264 241 232
331 351 356 7 245 226 216 216 231 227 217 216 202 202 191 208 216 221 215 218 217 225 225 230 235 245 247 248 260 270 275 275 244 277 282 248 252 255 252 267 266 254 219
340 345 11 20 324 216 209 216 219 216 216 215 245 211 215 211 208 210 211 217 214 216 217 216 222 223 236 248 259 272 269 267 256 275 278 243 251 256 264 261 260 248 214
354 1 3 17 31 199 213 222 217 223 214 217 223 220 218 210 214 200 202 209 208 204 206 212 215 223 239 251 263 266 262 264 247 274 278 247 250 250 262 262 240 195 179
352 6 13 8 18 66 163 214 230 232 208 197 201 201 197 214 213 212 198 202 211 204 199 206 221 235 249 254 260 255 260 253 254 277 268 250 243 243 237 224 190 175 160
342 337 356 8 61 266 282 144 188 200 207 200 203 205 189 181 194 179 188 192 193 197 207 218 240 249 257 263 246 243 263 249 261 265 267 239 226 225 217 196 182 174 171
345 338 326 346 344 328 202 201 213 177 190 192 196 211 204 212 204 212 208 207 206 205 211 214 224 236 251 257 253 239 249 246 259 270 248 230 223 216 217 200 186 181 176
335 350 329 318 309 327 295 234 207 196 200 194 201 204 210 219 221 218 215 218 217 213 218 222 228 237 239 247 249 239 243 257 261 250 244 229 214 204 220 205 185 178 172
335 327 332 333 349 258 253 243 206 171 171 186 180 178 204 211 215 214 217 220 224 230 241 248 241 223 229 236 244 240 236 250 260 239 237 223 211 208 201 176 167 163 160
24 2 359 10 20 39 48 219 222 206 212 194 197 201 204 195 202 205 208 221 232 233 229 224 221 224 234 239 234 243 253 254 239 235 226 215 201 192 182 176 166 170 174
50 47 44 41 25 36 47 44 97 190 202 205 210 198 194 199 201 201 204 215 215 217 218 221 223 222 227 229 233 245 251 228 230 222 213 198 180 171 179 176 178 174 169
Wind_Speed_850mb
53 58 61 63 64 59 53 66 71 78 76 39 42 32 87 46 59 63 59 56 51 51 54 52 51 50 49 45 51 47 46 46 54 53 43 42 41 45 51 43 39 42 48
53 58 59 59 63 64 67 52 60 71 83 57 44 38 35 60 42 39 55 49 51 55 50 52 54 51 48 45 49 47 40 36 31 38 46 53 55 53 54 45 31 38 37
56 60 63 58 63 58 50 53 49 52 57 60 46 24 11 70 79 71 67 61 53 54 51 51 47 43 41 31 32 27 25 22 25 34 47 47 42 45 48 47 41 45 48
54 53 61 63 59 63 57 53 46 38 33 38 41 49 93 93 73 69 59 50 41 38 39 44 33 31 20 17 23 29 32 36 40 44 47 44 45 50 53 51 52 47 48
68 68 58 54 62 65 59 57 61 45 54 42 46 58 57 58 63 57 52 44 43 40 34 35 38 33 26 27 29 31 31 33 36 33 36 42 44 36 36 43 46 50 38
103 93 79 75 64 59 67 62 53 54 41 46 63 61 63 65 61 61 50 48 49 51 47 39 21 14 15 19 25 34 43 51 50 44 46 60 60 60 47 42 46 48 45
104 112 104 99 93 91 64 68 61 57 57 49 61 63 62 60 58 58 59 56 54 42 34 30 24 9 5 7 13 15 21 22 23 26 36 39 43 45 49 55 57 47 44
87 86 88 91 84 92 87 58 74 64 59 51 38 60 58 63 56 64 68 65 55 43 39 34 21 17 14 8 11 21 21 22 25 29 36 39 41 45 48 49 47 41 42
82 83 83 74 92 98 95 73 63 81 60 40 69 32 55 48 51 69 69 66 58 49 38 24 21 19 15 14 19 21 27 35 31 35 34 41 35 43 52 54 46 40 32
79 73 73 80 82 90 83 73 70 63 76 51 49 58 24 45 59 65 74 66 55 48 35 29 29 27 16 13 16 20 23 26 35 40 42 48 48 53 49 45 36 33 26
72 70 76 69 77 75 94 79 54 63 59 60 69 51 60 41 68 72 67 63 61 49 39 34 30 19 18 17 23 29 29 30 38 46 50 49 42 44 27 20 26 25 21
62 69 65 66 81 55 67 97 69 64 49 71 64 77 74 61 56 76 72 66 57 47 41 35 31 32 25 24 28 34 38 38 42 46 47 48 42 27 18 21 19 23 28
64 66 66 57 58 68 81 58 80 68 61 51 79 68 87 70 44 66 69 61 61 48 44 40 32 32 38 35 37 43 45 44 40 41 37 42 33 22 21 24 22 26 29
65 66 60 56 59 53 61 65 65 82 68 50 65 77 85 78 58 67 53 60 60 67 58 41 44 46 45 45 49 52 51 48 35 32 37 35 28 24 29 26 22 27 21
66 64 62 61 48 53 48 62 60 72 76 60 58 71 85 89 81 72 57 61 66 63 70 67 62 55 55 54 51 42 37 33 23 34 42 29 27 25 26 26 26 16 20
52 54 50 39 38 41 37 45 52 59 87 66 38 43 65 85 88 79 76 64 75 72 72 73 67 58 56 46 35 36 37 41 30 39 44 28 29 32 28 26 26 19 21
39 51 37 16 10 22 26 34 37 60 85 77 34 30 40 59 72 93 74 74 64 63 68 72 66 57 42 40 39 38 38 38 38 42 39 31 37 31 26 31 30 25 23
33 40 38 14 1 7 16 26 27 32 67 104 58 35 32 39 57 79 86 79 76 66 58 53 48 49 43 41 40 40 36 42 43 50 41 37 37 28 34 32 31 22 28
33 37 25 20 9 4 11 19 25 27 36 86 46 37 44 33 46 52 66 82 81 70 60 54 49 49 49 45 45 41 37 42 34 50 40 37 40 30 33 29 17 21 30
35 34 27 14 11 7 12 8 22 28 36 61 54 39 36 27 40 54 47 66 73 73 70 64 61 61 62 55 46 39 41 50 35 52 43 39 32 31 31 24 21 29 31
31 33 29 17 7 5 11 3 13 25 25 55 60 50 35 31 36 39 57 58 55 56 55 50 44 42 39 43 50 44 45 44 45 44 44 43 30 34 32 25 28 31 34
29 24 26 24 15 5 4 10 12 20 28 38 54 62 69 60 43 36 47 51 57 47 46 45 44 46 46 45 39 45 47 42 53 45 42 43 35 36 35 33 35 43 41
21 30 19 20 22 17 9 6 13 18 31 31 40 59 62 79 70 56 51 57 54 46 54 58 50 47 49 47 45 51 52 51 49 43 44 40 40 32 40 43 45 45 40
18 22 26 30 19 22 22 18 8 14 20 31 48 52 42 63 73 68 62 58 59 56 59 67 65 65 58 55 42 41 44 53 47 45 45 37 43 38 43 46 52 45 39
25 20 22 29 27 32 16 7 25 20 26 30 48 56 54 50 55 61 53 70 72 63 59 63 66 63 55 55 53 49 56 56 47 40 36 35 39 43 48 46 50 47 40
44 38 33 32 27 24 20 13 9 19 32 33 37 37 44 44 49 57 52 56 56 64 62 56 57 60 54 51 54 58 48 44 41 38 35 41 40 61 53 55 52 45 45
Wind_Direction_850mb
303 304 304 309 300 296 294 271 270 254 251 260 257 220 214 238 224 216 209 204 211 219 225 235 240 242 244 239 239 250 244 246 261 276 282 285 292 285 288 296 295 297 301
299 297 307 299 308 300 291 291 280 266 257 263 264 247 196 220 232 213 229 217 215 222 220 226 228 232 240 235 234 246 252 261 261 279 288 291 289 286 289 296 294 310 312
290 295 300 301 298 304 300 289 282 285 270 250 258 266 261 208 217 215 219 213 215 217 222 230 234 234 234 231 240 243 247 264 269 275 281 283 290 292 286 293 280 301 303
310 292 289 299 300 299 302 280 290 267 221 211 202 190 218 208 203 209 207 206 213 220 231 225 220 210 190 185 227 244 246 251 262 271 276 287 291 292 274 289 287 289 287
301 301 288 296 298 297 290 303 268 266 205 202 204 204 200 196 202 198 195 195 196 198 184 181 179 186 193 210 232 242 248 255 255 254 261 272 276 303 291 288 292 300 305
293 287 286 287 278 285 289 279 294 256 235 214 212 209 201 195 191 188 185 174 165 173 180 187 180 203 241 249 247 252 255 253 258 263 271 280 276 278 289 295 295 295 299
285 281 281 279 282 273 280 273 268 272 257 222 216 204 203 193 193 184 177 178 180 173 172 184 167 161 190 267 286 287 285 286 281 280 284 284 286 287 291 291 293 292 299
285 280 271 275 267 265 259 278 253 254 264 245 227 211 203 196 195 186 183 182 182 192 195 187 181 197 230 273 255 249 272 275 276 281 281 284 286 289 288 289 293 294 298
284 280 280 262 256 257 265 270 262 250 244 234 256 173 206 199 201 191 186 180 184 193 198 193 212 236 255 288 289 290 267 258 264 266 273 280 277 281 283 280 278 285 284
286 283 271 270 266 262 259 263 259 252 244 231 224 217 209 195 202 196 195 187 189 191 203 214 228 236 250 250 286 301 291 268 267 266 265 274 280 291 284 267 260 247 265
296 287 277 275 262 265 251 249 269 256 247 236 232 229 214 204 204 204 200 195 191 195 208 222 232 223 221 260 290 295 298 296 285 280 284 295 296 301 284 227 219 225 250
304 298 285 269 254 250 258 248 248 244 244 229 224 229 219 219 209 196 205 200 192 205 203 213 223 221 227 252 281 297 299 297 292 286 290 296 304 281 239 214 222 265 267
306 301 293 285 259 249 241 246 238 243 241 239 226 224 226 235 219 200 203 206 200 187 198 210 210 227 243 269 289 293 295 298 301 287 283 295 296 255 238 230 241 256 265
305 301 296 282 274 257 241 236 239 237 237 253 223 221 227 233 227 215 208 209 213 215 220 215 226 235 256 275 287 289 292 297 286 281 278 297 281 249 248 247 250 265 250
320 302 302 286 265 259 242 231 235 234 225 243 231 221 218 222 219 211 210 210 223 220 221 225 234 244 261 272 281 290 298 308 271 276 279 274 259 255 250 261 270 254 234
333 330 325 300 254 244 237 228 230 235 220 228 218 203 215 219 213 214 220 225 225 228 220 225 234 246 260 271 272 277 278 280 257 263 272 261 249 248 260 268 264 241 232
331 351 356 7 245 226 216 216 231 227 217 216 202 202 191 208 216 221 215 218 217 225 225 230 235 245 247 248 260 270 275 275 244 277 282 248 252 255 252 267 266 254 219
340 345 11 20 324 216 209 216 219 216 216 215 245 211 215 211 208 210 211 217 214 216 217 216 222 223 236 248 259 272 269 267 256 275 278 243 251 256 264 261 260 248 214
354 1 3 17 31 199 213 222 217 223 214 217 223 220 218 210 214 200 202 209 208 204 206 212 215 223 239 251 263 266 262 264 247 274 278 247 250 250 262 262 240 195 179
352 6 13 8 18 66 163 214 230 232 208 197 201 201 197 214 213 212 198 202 211 204 199 206 221 235 249 254 260 255 260 253 254 277 268 250 243 243 237 224 190 175 160
342 337 356 8 61 266 282 144 188 200 207 200 203 205 189 181 194 179 188 192 193 197 207 218 240 249 257 263 246 243 263 249 261 265 267 239 226 225 217 196 182 174 171
345 338 326 346 344 328 202 201 213 177 190 192 196 211 204 212 204 212 208 207 206 205 211 214 224 236 251 257 253 239 249 246 259 270 248 230 223 216 217 200 186 181 176
335 350 329 318 309 327 295 234 207 196 200 194 201 204 210 219 221 218 215 218 217 213 218 222 228 237 239 247 249 239 243 257 261 250 244 229 214 204 220 205 185 178 172
335 327 332 333 349 258 253 243 206 171 171 186 180 178 204 211 215 214 217 220 224 230 241 248 241 223 229 236 244 240 236 250 260 239 237 223 211 208 201 176 167 163 160
24 2 359 10 20 39 48 219 222 206 212 194 197 201 204 195 202 205 208 221 232 233 229 224 221 224 234 239 234 243 253 254 239 235 226 215 201 192 182 176 166 170 174
50 47 44 41 25 36 47 44 97 190 202 205 210 198 194 199 201 201 204 215 215 217 218 221 223 222 227 229 233 245 251 228 230 222 213 198 180 171 179 176 178 174 169